When you browse on this site, cookies collect data to enhance your experience and personalize the content and advertising you see.
Visit our Privacy Policy to learn more. By continuing to use the site, you agree to this use of cookies and data.
  • In Austria
  • List of Countries
  • For 7 days
  • Water Temperature
  • Weather Map
  • News
  • Weather Widgets
  • user-avatar
    Login

    Hourly Weather Kormuzh

    Today, 15 December, Sunday

    Time Temperature Precipitation Wind Pressure Humidity
    00:00 +2°C° 0.4 mm 5 mps 737 mmHg 92%
    01:00 +3°C° 0.4 mm 4 mps 737 mmHg 93%
    02:00 +3°C° 0 mm 4 mps 737 mmHg 92%
    03:00 +3°C° 0.2 mm 4 mps 737 mmHg 90%
    04:00 +2°C° 0.2 mm 5 mps 737 mmHg 89%
    05:00 +2°C° 0.2 mm 5 mps 738 mmHg 87%
    06:00 +2°C° 0 mm 5 mps 738 mmHg 86%
    07:00 +2°C° 0 mm 5 mps 739 mmHg 84%
    08:00 +1°C° 0 mm 5 mps 739 mmHg 84%
    09:00 +1°C° 0 mm 5 mps 740 mmHg 83%
    10:00 +2°C° 0 mm 5 mps 740 mmHg 82%
    11:00 +2°C° 0 mm 5 mps 741 mmHg 81%
    12:00 +2°C° 0 mm 5 mps 741 mmHg 82%
    13:00 +3°C° 0 mm 4 mps 742 mmHg 83%
    14:00 +3°C° 0 mm 4 mps 742 mmHg 87%
    15:00 +3°C° 0 mm 4 mps 742 mmHg 86%
    16:00 +3°C° 0 mm 4 mps 743 mmHg 85%
    17:00 +3°C° 0 mm 3 mps 743 mmHg 83%
    18:00 +3°C° 0 mm 4 mps 743 mmHg 84%
    19:00 +1°C° 0 mm 4 mps 743 mmHg 84%
    20:00 +1°C° 0 mm 4 mps 743 mmHg 85%
    21:00 +1°C° 0.1 mm 4 mps 743 mmHg 86%
    22:00 +3°C° 0.1 mm 4 mps 743 mmHg 87%
    23:00 +2°C° 0.1 mm 5 mps 743 mmHg 88%

    Tomorrow, 16 December, Monday

    Time Temperature Precipitation Wind Pressure Humidity
    00:00 +2°C° 0 mm 5 mps 744 mmHg 87%
    01:00 +4°C° 0 mm 4 mps 744 mmHg 85%
    02:00 +4°C° 0 mm 4 mps 744 mmHg 84%
    03:00 +4°C° 0 mm 4 mps 744 mmHg 87%
    04:00 +4°C° 0 mm 4 mps 745 mmHg 89%
    05:00 +4°C° 0 mm 4 mps 745 mmHg 91%
    06:00 +4°C° 0 mm 4 mps 745 mmHg 91%
    07:00 +3°C° 0 mm 4 mps 746 mmHg 91%
    08:00 +3°C° 0 mm 4 mps 746 mmHg 90%
    09:00 +3°C° 0 mm 4 mps 747 mmHg 86%
    10:00 +3°C° 0 mm 5 mps 747 mmHg 82%
    11:00 +5°C° 0 mm 5 mps 748 mmHg 77%
    12:00 +5°C° 0 mm 5 mps 748 mmHg 75%
    13:00 +5°C° 0 mm 4 mps 748 mmHg 73%
    14:00 +5°C° 0 mm 4 mps 748 mmHg 71%
    15:00 +4°C° 0 mm 3 mps 749 mmHg 76%
    16:00 +4°C° 0 mm 3 mps 749 mmHg 82%
    17:00 +3°C° 0 mm 3 mps 750 mmHg 87%
    18:00 +3°C° 0 mm 2 mps 750 mmHg 89%
    19:00 +3°C° 0 mm 2 mps 750 mmHg 90%
    20:00 +3°C° 0 mm 2 mps 750 mmHg 91%
    21:00 +3°C° 0 mm 2 mps 750 mmHg 92%
    22:00 +3°C° 0 mm 2 mps 750 mmHg 92%
    23:00 +3°C° 0 mm 2 mps 750 mmHg 92%

    Day after tomorrow, 17 December, Tuesday

    Time Temperature Precipitation Wind Pressure Humidity
    00:00 +4°C° 0 mm 2 mps 750 mmHg 91%
    01:00 +3°C° 0 mm 3 mps 750 mmHg 90%
    02:00 +3°C° 0 mm 3 mps 750 mmHg 90%
    03:00 +3°C° 0 mm 3 mps 749 mmHg 91%
    04:00 +3°C° 0 mm 3 mps 749 mmHg 92%
    05:00 +4°C° 0 mm 2 mps 749 mmHg 93%
    06:00 +3°C° 0 mm 3 mps 748 mmHg 92%
    07:00 +3°C° 0 mm 3 mps 748 mmHg 92%
    08:00 +3°C° 0 mm 3 mps 748 mmHg 91%
    09:00 +4°C° 0 mm 3 mps 748 mmHg 88%
    10:00 +4°C° 0 mm 3 mps 748 mmHg 85%
    11:00 +5°C° 0 mm 4 mps 748 mmHg 82%
    12:00 +5°C° 0 mm 3 mps 748 mmHg 81%
    13:00 +7°C° 0 mm 3 mps 748 mmHg 80%
    14:00 +7°C° 0 mm 3 mps 748 mmHg 79%
    15:00 +5°C° 0 mm 3 mps 748 mmHg 82%
    16:00 +6°C° 0 mm 2 mps 748 mmHg 86%
    17:00 +5°C° 0 mm 2 mps 748 mmHg 89%
    18:00 +5°C° 0 mm 2 mps 748 mmHg 90%
    19:00 +5°C° 0 mm 2 mps 748 mmHg 91%
    20:00 +4°C° 0 mm 2 mps 748 mmHg 92%
    21:00 +4°C° 0 mm 2 mps 748 mmHg 92%
    22:00 +4°C° 0 mm 2 mps 748 mmHg 92%
    23:00 +5°C° 0 mm 1 mps 748 mmHg 91%

    18 December, Wednesday

    Time Temperature Precipitation Wind Pressure Humidity
    00:00 +4°C° 0 mm 2 mps 748 mmHg 91%
    01:00 +4°C° 0 mm 2 mps 748 mmHg 91%
    02:00 +4°C° 0 mm 2 mps 748 mmHg 91%
    03:00 +4°C° 0 mm 2 mps 748 mmHg 91%
    04:00 +4°C° 0 mm 2 mps 748 mmHg 91%
    05:00 +4°C° 0 mm 2 mps 747 mmHg 91%
    06:00 +4°C° 0 mm 2 mps 747 mmHg 92%
    07:00 +4°C° 0 mm 2 mps 747 mmHg 92%
    08:00 +3°C° 0 mm 2 mps 747 mmHg 93%
    09:00 +4°C° 0 mm 2 mps 747 mmHg 92%
    10:00 +4°C° 0 mm 2 mps 748 mmHg 92%
    11:00 +5°C° 0 mm 2 mps 748 mmHg 91%
    12:00 +5°C° 0 mm 2 mps 748 mmHg 90%
    13:00 +5°C° 0 mm 2 mps 747 mmHg 88%
    14:00 +6°C° 0 mm 2 mps 747 mmHg 87%
    15:00 +5°C° 0 mm 2 mps 747 mmHg 88%
    16:00 +5°C° 0 mm 2 mps 747 mmHg 90%
    17:00 +4°C° 0 mm 2 mps 747 mmHg 92%
    18:00 +4°C° 0 mm 2 mps 747 mmHg 92%
    19:00 +4°C° 0 mm 2 mps 747 mmHg 91%
    20:00 +4°C° 0 mm 2 mps 747 mmHg 91%
    21:00 +4°C° 0 mm 2 mps 747 mmHg 91%
    22:00 +4°C° 0 mm 2 mps 747 mmHg 91%
    23:00 +4°C° 0 mm 2 mps 747 mmHg 91%

    19 December, Thursday

    Time Temperature Precipitation Wind Pressure Humidity
    00:00 +4°C° 0 mm 2 mps 747 mmHg 92%
    01:00 +4°C° 0 mm 2 mps 747 mmHg 92%
    02:00 +4°C° 0 mm 2 mps 747 mmHg 92%
    03:00 +3°C° 0 mm 3 mps 747 mmHg 93%
    04:00 +3°C° 0 mm 3 mps 747 mmHg 93%
    05:00 +3°C° 0 mm 3 mps 746 mmHg 93%
    06:00 +3°C° 0 mm 3 mps 746 mmHg 93%
    07:00 +3°C° 0 mm 3 mps 746 mmHg 93%
    08:00 +3°C° 0 mm 3 mps 746 mmHg 93%
    09:00 +3°C° 0 mm 3 mps 746 mmHg 91%
    10:00 +4°C° 0 mm 3 mps 746 mmHg 90%
    11:00 +5°C° 0 mm 3 mps 746 mmHg 88%
    12:00 +5°C° 0 mm 3 mps 746 mmHg 87%
    13:00 +6°C° 0 mm 2 mps 746 mmHg 86%
    14:00 +7°C° 0 mm 2 mps 745 mmHg 85%
    15:00 +7°C° 0 mm 2 mps 745 mmHg 86%
    16:00 +6°C° 0 mm 2 mps 745 mmHg 88%
    17:00 +6°C° 0 mm 2 mps 745 mmHg 89%
    18:00 +7°C° 0 mm 1 mps 745 mmHg 90%
    19:00 +7°C° 0 mm 1 mps 745 mmHg 91%
    20:00 +6°C° 0 mm 1 mps 745 mmHg 91%
    21:00 +6°C° 0 mm 1 mps 745 mmHg 92%
    22:00 +6°C° 0 mm 1 mps 745 mmHg 93%
    23:00 +5°C° 0 mm 2 mps 745 mmHg 94%

    20 December, Friday

    Time Temperature Precipitation Wind Pressure Humidity
    00:00 +5°C° 0.1 mm 2 mps 745 mmHg 94%
    01:00 +5°C° 0.1 mm 2 mps 745 mmHg 95%
    02:00 +5°C° 0.1 mm 2 mps 745 mmHg 95%
    03:00 +5°C° 0 mm 2 mps 745 mmHg 95%
    04:00 +4°C° 0 mm 2 mps 744 mmHg 95%
    05:00 +4°C° 0 mm 2 mps 744 mmHg 96%
    06:00 +4°C° 0 mm 2 mps 744 mmHg 95%
    07:00 +3°C° 0 mm 3 mps 744 mmHg 95%
    08:00 +3°C° 0 mm 3 mps 744 mmHg 95%
    09:00 +3°C° 0 mm 3 mps 744 mmHg 94%
    10:00 +3°C° 0 mm 3 mps 745 mmHg 92%
    11:00 +4°C° 0 mm 4 mps 745 mmHg 91%
    12:00 +4°C° 0 mm 4 mps 744 mmHg 90%
    13:00 +4°C° 0 mm 4 mps 744 mmHg 90%
    14:00 +4°C° 0 mm 4 mps 743 mmHg 89%
    15:00 +4°C° 0 mm 4 mps 743 mmHg 89%
    16:00 +4°C° 0 mm 4 mps 743 mmHg 90%
    17:00 +4°C° 0 mm 4 mps 743 mmHg 90%
    18:00 +4°C° 0 mm 4 mps 743 mmHg 91%
    19:00 +4°C° 0 mm 4 mps 743 mmHg 92%
    20:00 +4°C° 0 mm 4 mps 742 mmHg 93%
    21:00 +4°C° 0 mm 4 mps 742 mmHg 92%
    22:00 +4°C° 0 mm 4 mps 742 mmHg 92%
    23:00 +3°C° 0 mm 5 mps 742 mmHg 92%
    Show more